Easton, MD

3:36 PM EST on January 24, 2017 (GMT -0500)
Easton / Newnam

Weather History for KESN - August, 2013

Change the Weather History Date:

Sunday, August 11, 2013

  Actual Average Record
Temperature  
Mean Temperature 76 °F -  
Max Temperature 84 °F 85 °F 97 °F (1949)
Min Temperature 67 °F 65 °F 50 °F (1972)
Cooling Degree Days 10    
Growing Degree Days 26 (Base 50)    
Moisture  
Dew Point 69 °F    
Average Humidity 91    
Maximum Humidity 100    
Minimum Humidity 62    
Precipitation  
Precipitation 0.00 in - - ()
Sea Level Pressure  
Sea Level Pressure 30.11 in    
Wind  
Wind Speed 1 mph (SE)    
Max Wind Speed 8 mph    
Max Gust Speed -    
Visibility 10 miles    
Events      
Averages and records for this station are not official NWS values.
T = Trace of Precipitation, MM = Missing Value Source: NWS Daily Summary

Daily Weather History Graph

Daily Weather History Graph

Search for Another Location

Airport or City:

Trip Planner

Search our weather history database for the weather conditions in past years. The results will help you decide how hot, cold, wet, or windy it might be!

Date:

Astronomy

Aug. 11, 2013 Rise Set
Actual Time 6:14 AM EDT 8:03 PM EDT
Civil Twilight 5:45 AM EDT 8:32 PM EDT
Nautical Twilight 5:10 AM EDT 9:07 PM EDT
Astronomical Twilight 4:33 AM EDT 9:44 PM EDT
Moon 10:56 AM EDT (8/11) 10:21 PM EDT (8/11)
Length of Visible Light 14h 46m
Length of Day
13h 49m
Waxing Crescent, 22% of the Moon is Illuminated
Aug 11
Waxing Crescent
Aug 14
First Quarter
Aug 20
Full
Aug 28
Last Quarter
Sep 5
New

Hourly Weather History & Observations

Time (EDT) Temp. Heat Index Dew Point Humidity Pressure Visibility Wind Dir Wind Speed Gust Speed Precip Events Conditions
12:05 AM 68.9 °F - 67.5 °F 95% 30.12 in 10.0 mi Calm Calm - N/A   Clear
12:25 AM 68.2 °F - 67.5 °F 98% 30.12 in 10.0 mi Calm Calm - N/A   Clear
12:45 AM 68.4 °F - 68.4 °F 100% 30.11 in 10.0 mi Calm Calm - N/A   Clear
1:05 AM 67.5 °F - 67.5 °F 100% 30.11 in 10.0 mi Calm Calm - N/A   Clear
1:25 AM 67.1 °F - 67.1 °F 100% 30.11 in 10.0 mi Calm Calm - N/A   Clear
1:45 AM 67.6 °F - 67.6 °F 100% 30.10 in 10.0 mi Calm Calm - N/A   Clear
2:05 AM 67.6 °F - 67.6 °F 100% 30.10 in 10.0 mi Calm Calm - N/A   Clear
2:25 AM 67.8 °F - 67.8 °F 100% 30.10 in 10.0 mi Calm Calm - N/A   Clear
2:45 AM 67.3 °F - 67.3 °F 100% 30.11 in 10.0 mi Calm Calm - N/A   Scattered Clouds
3:05 AM 67.3 °F - 67.3 °F 100% 30.11 in 7.0 mi Calm Calm - N/A   Mostly Cloudy
3:25 AM 67.3 °F - 67.3 °F 100% 30.10 in 10.0 mi Calm Calm - N/A   Scattered Clouds
3:45 AM 67.1 °F - 67.1 °F 100% 30.11 in 10.0 mi Calm Calm - N/A   Scattered Clouds
4:05 AM 67.5 °F - 67.5 °F 100% 30.11 in 10.0 mi Calm Calm - N/A   Mostly Cloudy
4:25 AM 67.8 °F - 67.8 °F 100% 30.11 in 10.0 mi Calm Calm - N/A   Mostly Cloudy
4:45 AM 68.4 °F - 68.4 °F 100% 30.11 in 10.0 mi Calm Calm - N/A   Scattered Clouds
5:05 AM 68.9 °F - 68.9 °F 100% 30.11 in 10.0 mi Calm Calm - N/A   Scattered Clouds
5:25 AM 69.3 °F - 69.3 °F 100% 30.12 in 10.0 mi Calm Calm - N/A   Mostly Cloudy
5:45 AM 69.4 °F - 69.4 °F 100% 30.13 in 10.0 mi Calm Calm - N/A   Scattered Clouds
5:53 AM 68.0 °F - 68.0 °F 100% 30.13 in 10.0 mi Calm Calm - N/A   Mostly Cloudy
6:05 AM 68.9 °F - 68.9 °F 100% 30.13 in 10.0 mi Calm Calm - N/A   Clear
6:25 AM 68.4 °F - 68.4 °F 100% 30.13 in 10.0 mi Calm Calm - N/A   Scattered Clouds
6:45 AM 69.3 °F - 69.3 °F 100% 30.13 in 10.0 mi Calm Calm - N/A   Mostly Cloudy
6:52 AM 69.8 °F - 69.8 °F 100% 30.13 in 10.0 mi Calm Calm - N/A   Overcast
7:06 AM 69.6 °F - 69.6 °F 100% 30.13 in 10.0 mi Calm Calm - N/A   Mostly Cloudy
7:26 AM 70.0 °F - 70.0 °F 100% 30.14 in 7.0 mi Calm Calm - N/A   Mostly Cloudy
7:42 AM 70.9 °F - 70.9 °F 100% 30.14 in 10.0 mi Calm Calm - N/A   Mostly Cloudy
7:53 AM 71.6 °F - 71.6 °F 100% 30.13 in 10.0 mi Calm Calm - N/A   Overcast
8:50 AM 73.4 °F - 73.4 °F 100% 30.15 in 10.0 mi NNE 4.6 mph - N/A   Overcast
9:50 AM 73.4 °F - 71.6 °F 94% 30.15 in 10.0 mi ENE 5.8 mph - N/A   Overcast
10:45 AM 75.2 °F - 71.6 °F 89% 30.15 in 10.0 mi East 3.5 mph - N/A   Mostly Cloudy
11:45 AM 77.0 °F - 71.6 °F 83% 30.15 in 10.0 mi NE 3.5 mph - N/A   Overcast
12:06 PM 79.0 °F - 70.7 °F 76% 30.15 in 10.0 mi ENE 3.5 mph - N/A   Overcast
12:16 PM 80.4 °F 83.8 °F 70.3 °F 71% 30.14 in 10.0 mi SE 3.5 mph - N/A   Scattered Clouds
12:45 PM 82.4 °F 87.2 °F 71.6 °F 70% 30.13 in 10.0 mi Calm Calm - N/A   Overcast
1:46 PM 82.4 °F 86.3 °F 69.8 °F 66% 30.13 in 10.0 mi South 3.5 mph - N/A   Overcast
2:50 PM 84.2 °F 88.4 °F 69.8 °F 62% 30.11 in 10.0 mi West 3.5 mph - N/A   Overcast
3:54 PM 82.4 °F 87.2 °F 71.6 °F 70% 30.10 in 10.0 mi SE 3.5 mph - N/A   Overcast
4:55 PM 80.6 °F 83.9 °F 69.8 °F 70% 30.09 in 10.0 mi South 4.6 mph - N/A   Overcast
5:50 PM 82.4 °F 85.4 °F 68.0 °F 62% 30.08 in 10.0 mi South 8.1 mph - N/A   Mostly Cloudy
6:50 PM 80.6 °F 83.2 °F 68.0 °F 65% 30.06 in 10.0 mi South 5.8 mph - N/A   Scattered Clouds
7:50 PM 77.0 °F - 68.0 °F 74% 30.07 in 10.0 mi SSE 5.8 mph - N/A   Scattered Clouds
9:50 PM 75.2 °F - 66.2 °F 73% 30.08 in 10.0 mi South 5.8 mph - N/A   Clear
11:07 PM 72.0 °F - 68.9 °F 90% 30.08 in 10.0 mi Calm Calm - N/A   Mostly Cloudy
11:27 PM 71.8 °F - 69.3 °F 92% 30.08 in 10.0 mi Calm Calm - N/A   Scattered Clouds
11:47 PM 71.6 °F - 69.8 °F 94% 30.08 in 10.0 mi Calm Calm - N/A   Mostly Cloudy